User: anonymous   Login
Location: Carnetin
(48.9010°N, 2.7059°E)
Time: 15:33:08
(UTC+00:00)
Language:

Cosmos 1605 Rocket - Orbit

View from above orbital plane
View from above orbital plane
View from above satellite
View from above satellite

Ground track
Ground track

The orbit data is extracted from the following two-line orbital elements,

1 15360U 84109B   22022.89079775  .00000104  00000-0  89642-4 0  9995
2 15360  82.9376 239.7574 0042076  33.7719 326.6105 13.76786530872587
Epoch (UTC): 22 January 2022 21:22:44
Eccentricity: 0.0042076
inclination: 82.9376°
perigee height: 944 km
apogee height: 1006 km
right ascension of ascending node: 239.7574°
argument of perigee: 33.7719°
revolutions per day: 13.76786530
mean anomaly at epoch: 326.6105°
orbit number at epoch: 87258

The dashed part of the orbit path shows where the satellite is in the earth's shadow,  

DLR